Regional Weather Roundup
Issued by NWS

Home | Current Version | Previous Version | Text Only | Print | Product List | Glossary Off
Versions: 1 2 3 4 5 6 7 8 9 10 11 12 13 14 15 16 17 18 19 20 21 22 23 24 25 26 27 28 29 30 31 32 33 34 35 36 37 38 39 40 41 42 43 44 45 46 47 48 49 50

161
ASUS43 KFSD 171510
RWRSD

WEATHER ROUNDUP FOR SOUTH DAKOTA
NATIONAL WEATHER SERVICE SIOUX FALLS SD
1000 AM CDT TUE OCT 17 2017

NOTE: "FAIR" INDICATES FEW OR NO CLOUDS BELOW 12,000 FEET WITH NO
SIGNIFICANT WEATHER AND/OR OBSTRUCTIONS TO VISIBILITY.


SDZ001>005-009-010-012>017-171600-
NORTHWEST AND NORTH CENTRAL SOUTH DAKOTA

CITY           SKY/WX    TMP DP  RH WIND       PRES   REMARKS
BUFFALO          N/A     53  28  38 W9        29.94R
FAITH            N/A     57  28  33 SW13      30.00S
MOBRIDGE       SUNNY     49  39  68 S9        29.95R
$$

SDZ012>016-024>037-041>051-057-063-072>074-171600-
SOUTHWEST AND SOUTH CENTRAL SOUTH DAKOTA

CITY           SKY/WX    TMP DP  RH WIND       PRES   REMARKS
RAPID CTY ARPT SUNNY     58  27  30 W5        30.06S
PIERRE         SUNNY     48  37  65 SW7       30.02R
CUSTER         CLOUDY    52  25  35 CALM      30.16S
ELLSWORTH AFB  SUNNY     58  26  30 W6        30.05F
PHILIP         SUNNY     51  34  52 W12       30.04S
PINE RIDGE     CLOUDY    43  35  73 SW3       30.11S
SPEARFISH      FAIR      55  28  35 CALM      30.08S
WINNER         FAIR      56  38  50 S3        30.05S
$$

SDZ004>011-016>023-039-040-171600-
NORTHEAST SOUTH DAKOTA

CITY           SKY/WX    TMP DP  RH WIND       PRES   REMARKS
ABERDEEN       SUNNY     47  39  74 S7        29.98F
WATERTOWN      SUNNY     49  43  80 SE7       30.01S
SISSETON         N/A     62  42  47 SW6       29.96S
$$

SDZ017-020-022-023-036>040-048>070-171600-
SOUTHEAST SOUTH DAKOTA

CITY           SKY/WX    TMP DP  RH WIND       PRES   REMARKS
SIOUX FALLS    MOSUNNY   54  45  71 S3        30.05S
HURON          SUNNY     51  41  68 MISG      30.03S
CHAMBERLAIN    SUNNY     53  44  70 CALM      30.05S
MITCHELL       SUNNY     51  41  68 SW5       30.05S
YANKTON        SUNNY     52  45  77 CALM      30.06S
$$

ABBREVIATIONS USED IN REMARKS
   TC - TEMPERATURE IN CELSIUS
  WCI - WIND CHILL INDEX
   HX - HEAT INDEX
  VSB - VISIBILITY





USA.gov is the U.S. government's official web portal to all federal, state and local government web resources and services.